Zurück zum Katalog

BREEZE-M DEB

ADAPTOR

AktivHEO
NORAD 37787·DEBRIS·🇷🇺 Russia

Gestartet Jul 15, 2011 von Baikonur Cosmodrome

Loading…

Nächste Überflüge (nächste 24 Stunden)

TLE

AktuellSource: Space-Track

Epoche: Sep 13, 2026, 19:33 UTC

1 37787U 11035E   26256.81496157 -.00000135  00000-0  00000-0 0  9994
2 37787  24.9230  47.0597 6136076 203.6033 103.7365  2.05990003111941

Verfolge BREEZE-M DEB in Echtzeit mit AllMySat

Download on the App Store